Location: Marseilles
(40.7010°N, 83.3930°W)
Time: 03:38:56
(UTC-04:00)

Cosmos 1459 Rocket - Visible Passes

Search period start: 26 May 2015 00:00
Search period end: 05 June 2015 00:00
Orbit: 938 x 1000 km, 83.0° (Epoch: 24 May)

Date Brightness Start Highest point End Pass type
(mag) Time Alt. Az. Time Alt. Az. Time Alt. Az.
26 May 5.2 02:07:27 28° ESE 02:09:03 32° E 02:14:38 10° NNE visible
26 May 4.7 03:51:59 30° WSW 03:54:13 39° WNW 04:00:07 10° N visible
27 May 4.4 02:30:52 45° SE 02:32:21 56° E 02:38:34 10° NNE visible
27 May 5.4 04:15:23 18° WSW 04:18:05 23° WNW 04:22:54 10° NNW visible
28 May 6.1 01:09:44 12° E 01:11:16 14° E 01:14:25 10° NE visible
28 May 3.9 02:54:16 56° SSW 02:55:46 86° W 03:02:11 10° N visible
28 May 6.0 04:39:08 10° W 04:42:09 13° WNW 04:44:46 10° NW visible
29 May 5.5 01:33:07 23° ESE 01:34:24 25° E 01:39:28 10° NNE visible
29 May 4.4 03:17:38 41° WSW 03:19:20 50° WNW 03:25:30 10° N visible
30 May 4.7 01:56:29 39° ESE 01:57:39 43° E 02:03:37 10° NNE visible
30 May 5.1 03:41:01 25° WSW 03:43:06 29° WNW 03:48:30 10° NNW visible
31 May 4.0 02:19:51 60° SSE 02:21:00 75° E 02:27:22 10° N visible
31 May 5.8 04:04:22 14° W 04:07:04 17° WNW 04:10:56 10° NNW visible
01 Jun 5.7 00:58:40 18° E 00:59:46 19° E 01:04:08 10° NE visible
01 Jun 4.1 02:43:11 53° SW 02:44:29 65° W 02:50:49 10° N visible
02 Jun 5.0 01:22:00 31° ESE 01:22:57 33° E 01:28:35 10° NNE visible
02 Jun 4.8 03:06:31 33° WSW 03:08:09 37° WNW 03:13:58 10° N visible
03 Jun 4.2 01:45:19 52° SE 01:46:16 58° E 01:52:29 10° NNE visible
03 Jun 5.5 03:29:50 19° W 03:32:01 22° WNW 03:36:43 10° NNW visible
04 Jun 6.0 00:24:06 14° E 00:25:09 14° E 00:28:29 10° NE visible
04 Jun 3.9 02:08:38 64° SSW 02:09:41 83° W 02:16:04 10° N visible
04 Jun 6.1 03:53:22 10° W 03:56:07 12° WNW 03:58:27 10° NW visible
